Ellensburg, WA

3:20 AM PDT on May 20, 2018 (GMT -0700)
Bowers

Weather History for KELN - February, 2013

Change the Weather History Date:

Thursday, February 7, 2013

  Actual Average (KYKM) Record (KYKM)
Temperature  
Mean Temperature 40 °F -  
Max Temperature 48 °F 40 °F 65 °F (2015)
Min Temperature 32 °F 22 °F -4 °F (2014)
Degree Days  
Heating Degree Days 25    
Moisture  
Dew Point 26 °F    
Average Humidity 61    
Maximum Humidity 79    
Minimum Humidity 39    
Precipitation  
Precipitation 0.00 in - - ()
Sea Level Pressure  
Sea Level Pressure 29.96 in    
Wind  
Wind Speed 8 mph (NW)    
Max Wind Speed 22 mph    
Max Gust Speed 25 mph    
Visibility 10 miles    
Events      
Averages and records for this station are not official NWS values.
T = Trace of Precipitation, MM = Missing Value Source: NWS Daily Summary

Daily Weather History Graph

Daily Weather History Graph

Search for Another Location

Airport or City:

Astronomy

Feb. 07, 2013 Rise Set
Actual Time 7:18 AM PST 5:14 PM PST
Civil Twilight 6:46 AM PST 5:46 PM PST
Nautical Twilight 6:10 AM PST 6:22 PM PST
Astronomical Twilight 5:34 AM PST 6:58 PM PST
Moon 5:08 AM PST (2/7) 2:39 PM PST (2/7)
Length of Visible Light 11h 00m
Length of Day
9h 56m
Waning Crescent, 8% of the Moon is Illuminated
Feb 7
Waning Crescent
Feb 9
New
Feb 17
First Quarter
Feb 25
Full
Mar 4
Last Quarter

Hourly Weather History & Observations

Time (PST) Temp. Windchill Dew Point Humidity Pressure Visibility Wind Dir Wind Speed Gust Speed Precip Events Conditions
12:53 AM 37.0 °F - 30.0 °F 76% 29.88 in 10.0 mi Calm Calm - N/A   Scattered Clouds
1:53 AM 35.1 °F - 28.9 °F 78% 29.87 in 10.0 mi Calm Calm - N/A   Mostly Cloudy
2:53 AM 35.1 °F 31.0 °F 28.9 °F 78% 29.86 in 10.0 mi ENE 4.6 mph - N/A   Overcast
3:53 AM 34.0 °F 28.0 °F 28.0 °F 79% 29.87 in 10.0 mi NE 6.9 mph - N/A   Partly Cloudy
4:53 AM 34.0 °F 28.8 °F 28.0 °F 79% 29.88 in 10.0 mi West 5.8 mph - N/A   Mostly Cloudy
5:53 AM 35.1 °F 28.6 °F 28.9 °F 78% 29.90 in 10.0 mi NW 8.1 mph - N/A   Overcast
6:53 AM 34.0 °F 25.5 °F 27.0 °F 75% 29.91 in 10.0 mi NW 11.5 mph - N/A   Partly Cloudy
7:53 AM 32.0 °F 24.8 °F 26.1 °F 79% 29.94 in 10.0 mi NW 8.1 mph - N/A   Clear
8:53 AM 39.0 °F 34.0 °F 28.9 °F 67% 29.94 in 10.0 mi West 6.9 mph - N/A   Clear
9:53 AM 44.1 °F 37.1 °F 28.0 °F 53% 29.95 in 10.0 mi WNW 15.0 mph - N/A   Clear
10:53 AM 46.0 °F 38.5 °F 26.1 °F 46% 29.96 in 10.0 mi NW 19.6 mph - N/A   Clear
11:53 AM 46.0 °F 38.0 °F 25.0 °F 44% 29.95 in 10.0 mi NW 21.9 mph 25.3 mph N/A   Clear
12:53 PM 46.9 °F - 25.0 °F 42% 29.95 in 10.0 mi West 18.4 mph - N/A   Clear
1:53 PM 48.0 °F - 24.1 °F 39% 29.93 in 10.0 mi WNW 17.3 mph - N/A   Clear
2:53 PM 48.0 °F - 24.1 °F 39% 29.94 in 10.0 mi WNW 17.3 mph - N/A   Clear
3:53 PM 46.0 °F 39.0 °F 24.1 °F 42% 29.96 in 10.0 mi NW 17.3 mph - N/A   Clear
4:53 PM 43.0 °F 35.7 °F 23.0 °F 45% 29.99 in 10.0 mi NW 15.0 mph - N/A   Mostly Cloudy
5:53 PM 39.9 °F 31.8 °F 24.1 °F 53% 30.01 in 10.0 mi NW 15.0 mph - N/A   Overcast
6:53 PM 37.0 °F 28.9 °F 25.0 °F 62% 30.03 in 10.0 mi NW 12.7 mph - N/A   Clear
7:53 PM 36.0 °F 27.5 °F 24.1 °F 62% 30.04 in 10.0 mi NNW 12.7 mph - N/A   Clear
8:53 PM 35.1 °F 25.9 °F 24.1 °F 64% 30.05 in 10.0 mi NW 13.8 mph - N/A   Clear
9:53 PM 35.1 °F 25.9 °F 24.1 °F 64% 30.06 in 10.0 mi NW 13.8 mph - N/A   Clear
10:53 PM 33.1 °F 26.9 °F 23.0 °F 66% 30.07 in 10.0 mi WNW 6.9 mph - N/A   Clear
11:53 PM 34.0 °F 26.0 °F 23.0 °F 64% 30.09 in 10.0 mi NW 10.4 mph - N/A   Clear